EZY68ZJ EGKK-LFMT

Flight info

Callsign EZY68ZJ
Flight time N/A
Altitude 33000
Route SFD Y47 DRAKE L151 SITET UN859 SOPIL DCT BALAN DCT EVPOK DCT NARAK DCT GAI/N0403F190 G39 AFRIC/N0392F170 G393 BRUSC
Aircraft A320/M-SDE3FGHIRWY/LB1

Departure

Time N/A
Airport London Gatwick Airport (EGKK)

Arrival

Time 2026-04-24 19:34
Airport Montpellier-Méditerranée Airport (LFMT)
Time Latitude Longitude Altitude Speed Heading
2026-04-24 17:06 51.15591 -0.17621 213 ft 0 kts 347°
2026-04-24 18:54 43.90179 2.14090 33083 ft 466 kts 103°
2026-04-24 18:55 43.87987 2.27220 33092 ft 466 kts 103°
2026-04-24 18:56 43.86511 2.35972 33099 ft 467 kts 103°
2026-04-24 18:56 43.85037 2.44676 33103 ft 468 kts 103°
2026-04-24 18:57 43.83545 2.53462 32165 ft 471 kts 103°
2026-04-24 18:57 43.82787 2.57900 30765 ft 477 kts 103°
2026-04-24 18:57 43.82000 2.62393 29281 ft 482 kts 104°
2026-04-24 18:57 43.81182 2.66890 27507 ft 482 kts 104°
2026-04-24 18:58 43.80340 2.71405 25453 ft 487 kts 103°
2026-04-24 18:58 43.79481 2.75952 23776 ft 486 kts 103°
2026-04-24 18:58 43.78641 2.80382 22187 ft 478 kts 103°
2026-04-24 18:58 43.77807 2.84784 20700 ft 468 kts 104°
2026-04-24 18:59 43.76998 2.89111 19682 ft 462 kts 103°
2026-04-24 18:59 43.76231 2.93410 18876 ft 459 kts 103°
2026-04-24 18:59 43.75497 2.97689 17998 ft 457 kts 102°
2026-04-24 18:59 43.74779 3.01944 17243 ft 451 kts 102°
2026-04-24 19:00 43.74068 3.06138 16656 ft 442 kts 102°
2026-04-24 19:00 43.73366 3.10216 16224 ft 431 kts 103°
2026-04-24 19:00 43.72668 3.14209 15757 ft 424 kts 103°
2026-04-24 19:00 43.71984 3.18098 15306 ft 421 kts 103°
2026-04-24 19:01 43.71294 3.22005 14857 ft 418 kts 103°
2026-04-24 19:01 43.70601 3.25897 14405 ft 415 kts 103°
2026-04-24 19:01 43.69913 3.29750 13958 ft 412 kts 103°
2026-04-24 19:01 43.69229 3.33586 13479 ft 409 kts 103°
2026-04-24 19:02 43.68550 3.37390 13035 ft 407 kts 103°
2026-04-24 19:02 43.67875 3.41171 12597 ft 404 kts 103°
2026-04-24 19:02 43.67207 3.44919 12160 ft 401 kts 103°
2026-04-24 19:02 43.66549 3.48642 11731 ft 398 kts 103°
2026-04-24 19:03 43.65910 3.52286 11349 ft 391 kts 103°
2026-04-24 19:03 43.65437 3.55922 10755 ft 384 kts 91°
2026-04-24 19:03 43.65764 3.59526 10374 ft 372 kts 77°
2026-04-24 19:03 43.66308 3.62927 10250 ft 354 kts 76°
2026-04-24 19:04 43.66831 3.66175 10133 ft 338 kts 76°
2026-04-24 19:04 43.67329 3.69279 10014 ft 325 kts 76°
2026-04-24 19:04 43.67808 3.72266 9880 ft 312 kts 76°
2026-04-24 19:04 43.68265 3.75137 9751 ft 300 kts 76°
2026-04-24 19:05 43.68708 3.77913 9545 ft 292 kts 77°
2026-04-24 19:05 43.69136 3.80597 9213 ft 289 kts 77°
2026-04-24 19:05 43.69578 3.83301 8819 ft 288 kts 77°
2026-04-24 19:05 43.70146 3.85935 8431 ft 286 kts 62°
2026-04-24 19:06 43.71395 3.88015 8064 ft 282 kts 35°
2026-04-24 19:06 43.73165 3.89071 7672 ft 278 kts
2026-04-24 19:06 43.75067 3.88885 7283 ft 275 kts 340°
2026-04-24 19:06 43.76674 3.87510 6876 ft 273 kts 313°
2026-04-24 19:07 43.77618 3.85271 6472 ft 271 kts 285°
2026-04-24 19:07 43.77691 3.82727 6046 ft 270 kts 257°
2026-04-24 19:07 43.76882 3.80420 5626 ft 269 kts 228°
2026-04-24 19:07 43.75385 3.78938 5225 ft 266 kts 199°
2026-04-24 19:08 43.73581 3.78644 4857 ft 262 kts 171°
2026-04-24 19:08 43.71950 3.79613 4679 ft 253 kts 141°
2026-04-24 19:08 43.70841 3.81428 4517 ft 244 kts 125°
2026-04-24 19:08 43.69741 3.83185 4209 ft 241 kts 138°
2026-04-24 19:09 43.68559 3.84807 4003 ft 239 kts 127°
2026-04-24 19:09 43.67631 3.86727 4009 ft 242 kts 123°
2026-04-24 19:09 43.66756 3.88670 4007 ft 242 kts 122°
2026-04-24 19:09 43.65870 3.90646 4014 ft 242 kts 123°
2026-04-24 19:10 43.64987 3.92622 4016 ft 242 kts 123°
2026-04-24 19:10 43.64106 3.94598 4015 ft 241 kts 123°
2026-04-24 19:10 43.63233 3.96571 4017 ft 241 kts 122°
2026-04-24 19:10 43.62350 3.98549 4005 ft 242 kts 123°
2026-04-24 19:11 43.61468 4.00526 4013 ft 242 kts 122°
2026-04-24 19:11 43.60577 4.02502 4006 ft 243 kts 122°
2026-04-24 19:11 43.59700 4.04451 4013 ft 242 kts 122°
2026-04-24 19:11 43.58817 4.06426 4012 ft 242 kts 122°
2026-04-24 19:12 43.57933 4.08401 4008 ft 242 kts 123°
2026-04-24 19:12 43.57055 4.10374 4010 ft 241 kts 122°
2026-04-24 19:12 43.56172 4.12347 4014 ft 242 kts 123°
2026-04-24 19:12 43.55296 4.14313 4008 ft 236 kts 122°
2026-04-24 19:13 43.54736 4.15556 4006 ft 226 kts 122°
2026-04-24 19:13 43.53589 4.17775 3997 ft 205 kts 142°
2026-04-24 19:13 43.52333 4.18449 4004 ft 190 kts 181°
2026-04-24 19:13 43.51148 4.17903 3994 ft 178 kts 221°
2026-04-24 19:14 43.50565 4.16461 4002 ft 177 kts 264°
2026-04-24 19:14 43.50791 4.14807 4027 ft 179 kts 293°
2026-04-24 19:14 43.51328 4.13233 3835 ft 185 kts 288°
2026-04-24 19:14 43.51593 4.11499 3412 ft 182 kts 276°
2026-04-24 19:15 43.51790 4.09873 3107 ft 166 kts 281°
2026-04-24 19:15 43.52186 4.08430 2701 ft 161 kts 292°
2026-04-24 19:15 43.52690 4.07058 2254 ft 160 kts 296°
2026-04-24 19:15 43.53291 4.05775 1843 ft 158 kts 307°
2026-04-24 19:16 43.54664 4.03501 1050 ft 151 kts 294°
2026-04-24 19:16 43.55196 4.02292 784 ft 143 kts 306°
2026-04-24 19:16 43.55772 4.01221 560 ft 135 kts 300°
2026-04-24 19:17 43.56299 4.00174 336 ft 128 kts 303°
2026-04-24 19:17 43.56808 3.99190 160 ft 137 kts 299°
2026-04-24 19:17 43.57398 3.98011 165 ft 151 kts 303°
2026-04-24 19:17 43.58027 3.96783 751 ft 163 kts 303°
2026-04-24 19:18 43.58696 3.95461 1536 ft 170 kts 303°
2026-04-24 19:18 43.59396 3.94064 2054 ft 182 kts 303°
2026-04-24 19:18 43.60121 3.92615 2669 ft 185 kts 302°
2026-04-24 19:18 43.60856 3.91135 3286 ft 189 kts 302°
2026-04-24 19:19 43.61605 3.89624 3865 ft 193 kts 303°
2026-04-24 19:19 43.62367 3.88076 4475 ft 196 kts 303°
2026-04-24 19:19 43.63124 3.86514 4923 ft 201 kts 303°
2026-04-24 19:19 43.63892 3.84915 5003 ft 199 kts 302°
2026-04-24 19:20 43.64822 3.83521 5002 ft 199 kts 330°
2026-04-24 19:20 43.66105 3.82811 5009 ft 200 kts 351°
2026-04-24 19:20 43.67448 3.83078 5011 ft 198 kts 30°
2026-04-24 19:20 43.68408 3.84380 5020 ft 195 kts 63°
2026-04-24 19:21 43.68673 3.86170 5014 ft 191 kts 101°
2026-04-24 19:21 43.68216 3.87888 5024 ft 191 kts 118°
2026-04-24 19:21 43.67588 3.89507 5020 ft 191 kts 120°
2026-04-24 19:21 43.66951 3.91085 5016 ft 191 kts 121°
2026-04-24 19:22 43.66513 3.92163 5017 ft 191 kts 120°
2026-04-24 19:22 43.65655 3.94277 5015 ft 190 kts 121°
2026-04-24 19:22 43.65005 3.95875 5016 ft 191 kts 121°
2026-04-24 19:22 43.64356 3.97472 5010 ft 191 kts 120°
2026-04-24 19:23 43.63705 3.99062 4936 ft 189 kts 120°
2026-04-24 19:23 43.63055 4.00646 4628 ft 189 kts 121°
2026-04-24 19:23 43.62411 4.02228 4346 ft 189 kts 121°
2026-04-24 19:23 43.61777 4.03785 4067 ft 188 kts 121°
2026-04-24 19:24 43.61118 4.05335 3787 ft 186 kts 130°
2026-04-24 19:24 43.60107 4.06386 3510 ft 182 kts 160°
2026-04-24 19:24 43.58905 4.06948 3203 ft 183 kts 162°
2026-04-24 19:24 43.57701 4.07498 3025 ft 183 kts 163°
2026-04-24 19:25 43.56487 4.08051 3009 ft 184 kts 162°
2026-04-24 19:25 43.55265 4.08604 3010 ft 185 kts 162°
2026-04-24 19:25 43.54045 4.09158 3011 ft 185 kts 162°
2026-04-24 19:25 43.52825 4.09713 3010 ft 185 kts 162°
2026-04-24 19:26 43.51623 4.10259 3010 ft 185 kts 162°
2026-04-24 19:26 43.50463 4.10988 3010 ft 185 kts 140°
2026-04-24 19:26 43.49620 4.12337 3013 ft 186 kts 126°
2026-04-24 19:26 43.48899 4.13820 3012 ft 187 kts 124°
2026-04-24 19:27 43.48187 4.15314 3012 ft 187 kts 125°
2026-04-24 19:27 43.47463 4.16796 3012 ft 186 kts 126°
2026-04-24 19:27 43.46725 4.18263 3013 ft 186 kts 126°
2026-04-24 19:27 43.45978 4.19720 3012 ft 186 kts 127°
2026-04-24 19:28 43.45234 4.21149 3012 ft 186 kts 128°
2026-04-24 19:28 43.44300 4.22328 3005 ft 184 kts 156°
2026-04-24 19:28 43.43059 4.22513 3011 ft 183 kts 196°
2026-04-24 19:28 43.42027 4.21558 3015 ft 183 kts 234°
2026-04-24 19:29 43.42012 4.18219 3013 ft 189 kts 306°
2026-04-24 19:29 43.43075 4.17186 3013 ft 192 kts 346°
2026-04-24 19:29 43.44390 4.17279 3028 ft 192 kts 15°
2026-04-24 19:30 43.45684 4.17732 3038 ft 192 kts
2026-04-24 19:30 43.46988 4.17485 3019 ft 191 kts 333°
2026-04-24 19:30 43.47949 4.16296 3016 ft 190 kts 306°
2026-04-24 19:30 43.48741 4.14847 2967 ft 189 kts 306°
2026-04-24 19:31 43.49514 4.13396 2897 ft 188 kts 304°
2026-04-24 19:31 43.50263 4.11927 2731 ft 187 kts 303°
2026-04-24 19:31 43.51021 4.10481 2502 ft 186 kts 305°
2026-04-24 19:31 43.51756 4.09103 2228 ft 169 kts 304°
2026-04-24 19:32 43.52418 4.07843 1915 ft 157 kts 303°
2026-04-24 19:32 43.53039 4.06642 1600 ft 151 kts 303°
2026-04-24 19:32 43.53632 4.05500 1319 ft 146 kts 304°
2026-04-24 19:32 43.54212 4.04366 1109 ft 144 kts 302°
2026-04-24 19:33 43.54765 4.03220 910 ft 143 kts 301°
2026-04-24 19:33 43.55324 4.02093 665 ft 141 kts 303°
2026-04-24 19:33 43.55882 4.00990 485 ft 140 kts 301°
2026-04-24 19:33 43.56435 3.99881 291 ft 140 kts 302°
2026-04-24 19:34 43.57003 3.98797 159 ft 139 kts 297°
2026-04-24 19:34 43.57545 3.97696 29 ft 131 kts 291°
2026-04-24 19:34 43.57863 3.97048 19 ft 48 kts 304°
2026-04-24 19:34 43.58034 3.96728 21 ft 24 kts 307°
2026-04-24 19:35 43.58114 3.96565 23 ft 21 kts 303°
2026-04-24 19:35 43.58201 3.96391 24 ft 23 kts 304°
2026-04-24 19:35 43.58295 3.96199 20 ft 26 kts 304°
2026-04-24 19:35 43.58298 3.96056 17 ft 16 kts 244°
2026-04-24 19:36 43.58256 3.95939 18 ft 13 kts 244°
2026-04-24 19:36 43.58213 3.95816 18 ft 15 kts 241°
2026-04-24 19:36 43.58125 3.95784 19 ft 16 kts 143°
2026-04-24 19:36 43.58056 3.95912 20 ft 18 kts 114°
2026-04-24 19:37 43.58016 3.96032 20 ft 3 kts 120°
2026-04-24 19:37 43.58010 3.96036 20 ft 0 kts 154°
2026-04-24 19:37 43.57990 3.96046 20 ft 4 kts 176°
2026-04-24 19:37 43.57979 3.96038 20 ft 2 kts 212°
2026-04-24 19:38 43.57967 3.96010 20 ft 3 kts 246°
2026-04-24 19:38 43.57964 3.95998 20 ft 0 kts 252°
2026-04-24 19:38 43.57964 3.95995 20 ft 0 kts 251°